TimeCST,TemperatureF,Dew PointF,Humidity,Sea Level PressureIn,VisibilityMPH,Wind Direction,Wind SpeedMPH,Gust SpeedMPH,PrecipitationIn,Events,Conditions,WindDirDegrees,DateUTC
12:52 AM,16.0,12.0,84,30.27,8.0,Calm,Calm,-,N/A,,Clear,0,2013-01-02 06:52:00
1:52 AM,15.1,10.9,84,30.27,8.0,SW,3.5,-,N/A,,Clear,230,2013-01-02 07:52:00
2:52 AM,15.1,12.0,88,30.29,7.0,Calm,Calm,-,N/A,,Clear,0,2013-01-02 08:52:00
3:52 AM,15.1,12.0,88,30.28,7.0,Calm,Calm,-,N/A,,Clear,0,2013-01-02 09:52:00
4:52 AM,16.0,12.0,84,30.27,7.0,Calm,Calm,-,N/A,,Clear,0,2013-01-02 10:52:00
5:52 AM,14.0,10.9,88,30.28,7.0,SSW,4.6,-,N/A,,Clear,210,2013-01-02 11:52:00
6:52 AM,14.0,10.9,88,30.27,7.0,SSE,4.6,-,N/A,,Clear,150,2013-01-02 12:52:00
7:52 AM,16.0,12.0,84,30.27,5.0,South,3.5,-,N/A,,Clear,170,2013-01-02 13:52:00
8:52 AM,21.2,17.6,86,30.22,7.0,SSW,5.8,-,N/A,,Clear,200,2013-01-02 14:52:00
9:52 AM,25.0,19.0,78,30.27,8.0,South,6.9,-,N/A,,Clear,190,2013-01-02 15:52:00
10:52 AM,28.0,19.0,69,30.27,10.0,SSW,8.1,-,N/A,,Clear,200,2013-01-02 16:52:00
11:52 AM,30.9,18.0,59,30.25,10.0,SSW,6.9,-,N/A,,Clear,200,2013-01-02 17:52:00
12:52 PM,33.1,18.0,54,30.22,10.0,SW,9.2,-,N/A,,Clear,220,2013-01-02 18:52:00
1:52 PM,35.1,15.1,44,30.19,10.0,SSW,8.1,-,N/A,,Clear,210,2013-01-02 19:52:00
2:52 PM,35.1,14.0,42,30.19,10.0,SSW,10.4,-,N/A,,Clear,210,2013-01-02 20:52:00
3:52 PM,35.1,16.0,46,30.20,10.0,South,8.1,-,N/A,,Clear,180,2013-01-02 21:52:00
4:52 PM,30.9,16.0,54,30.21,10.0,SSW,9.2,-,N/A,,Clear,200,2013-01-02 22:52:00
5:52 PM,26.1,15.1,63,30.23,10.0,SSW,6.9,-,N/A,,Clear,210,2013-01-02 23:52:00
6:52 PM,26.1,16.0,66,30.25,10.0,WSW,5.8,-,N/A,,Clear,240,2013-01-03 00:52:00
7:52 PM,24.1,16.0,71,30.26,10.0,SW,6.9,-,N/A,,Clear,230,2013-01-03 01:52:00
8:52 PM,23.0,16.0,74,30.27,10.0,SW,6.9,-,N/A,,Clear,220,2013-01-03 02:52:00
9:52 PM,21.9,16.0,78,30.27,10.0,SSW,6.9,-,N/A,,Clear,210,2013-01-03 03:52:00
10:10 PM,24.1,18.0,77,30.22,10.0,SW,6.9,-,N/A,,Mostly Cloudy,220,2013-01-03 04:10:00
10:52 PM,27.0,19.9,75,30.27,10.0,SW,6.9,-,N/A,,Overcast,220,2013-01-03 04:52:00
11:38 PM,25.0,19.0,78,30.24,10.0,WSW,5.8,-,N/A,,Scattered Clouds,240,2013-01-03 05:38:00
11:52 PM,24.1,18.0,77,30.27,10.0,WSW,6.9,-,N/A,,Clear,240,2013-01-03 05:52:00